�������l�o���
Date,Time,MP-1(��Sv/h),MP-2(��Sv/h),MP-3(��Sv/h),MP-4(��Sv/h),MP-5(��Sv/h),MP-6(��Sv/h),MP-7(��Sv/h),MP-8(��Sv/h),����,����(m/s),���J
2019/08/12,00:00,0.763,1.083,0.752,1.343,0.980,0.429,0.750,0.709,�k��,3.4,�L
2019/08/12,00:10,0.764,1.083,0.753,1.344,0.979,0.430,0.751,0.710,�k��,3.4,�L
2019/08/12,00:20,0.765,1.084,0.753,1.342,0.982,0.427,0.749,0.709,�k��,3.7,�L
2019/08/12,00:30,0.763,1.084,0.752,1.344,0.980,0.428,0.752,0.709,�k��,3.6,�L
2019/08/12,00:40,0.765,1.083,0.753,1.344,0.981,0.428,0.749,0.709,�k��,3.8,��
2019/08/12,00:50,0.762,1.082,0.753,1.345,0.981,0.430,0.751,0.708,�k��,3.5,��
2019/08/12,01:00,0.762,1.082,0.753,1.342,0.981,0.430,0.748,0.710,�k��,3.9,�L
2019/08/12,01:10,0.763,1.083,0.754,1.344,0.980,0.429,0.750,0.711,�k��,3.6,�L
2019/08/12,01:20,0.764,1.083,0.753,1.346,0.981,0.429,0.750,0.708,�k��,3.6,�L
2019/08/12,01:30,0.762,1.082,0.751,1.342,0.983,0.429,0.750,0.710,�k��,3.8,�L
2019/08/12,01:40,0.762,1.083,0.753,1.343,0.979,0.430,0.750,0.709,�k��,3.8,�L
2019/08/12,01:50,0.761,1.080,0.753,1.344,0.981,0.430,0.750,0.709,�k��,4.0,�L
2019/08/12,02:00,0.763,1.080,0.754,1.340,0.981,0.429,0.750,0.710,�k��,4.2,�L
2019/08/12,02:10,0.762,1.081,0.754,1.345,0.980,0.429,0.751,0.709,�k�k��,3.3,�L
2019/08/12,02:20,0.763,1.082,0.751,1.342,0.979,0.429,0.752,0.709,�k�k��,2.3,��
2019/08/12,02:30,0.763,1.081,0.754,1.342,0.980,0.429,0.751,0.710,�k��,1.9,��
2019/08/12,02:40,0.762,1.082,0.751,1.342,0.981,0.431,0.750,0.709,�k��,2.2,��
2019/08/12,02:50,0.762,1.081,0.753,1.343,0.979,0.429,0.749,0.710,�k��,1.5,��
2019/08/12,03:00,0.763,1.081,0.751,1.343,0.979,0.429,0.749,0.709,�k�k��,1.9,��
2019/08/12,03:10,0.762,1.082,0.752,1.343,0.979,0.429,0.751,0.709,�k�k��,2.0,��
2019/08/12,03:20,0.761,1.083,0.751,1.340,0.980,0.430,0.752,0.709,�k�k��,3.1,��
2019/08/12,03:30,0.763,1.082,0.752,1.342,0.981,0.429,0.751,0.709,�k�k��,2.3,��
2019/08/12,03:40,0.764,1.082,0.751,1.341,0.979,0.430,0.751,0.710,�k�k��,2.2,��
2019/08/12,03:50,0.761,1.083,0.751,1.341,0.979,0.430,0.751,0.709,�k�k��,2.2,��
2019/08/12,04:00,0.763,1.081,0.752,1.343,0.978,0.430,0.753,0.709,�k,2.3,��
2019/08/12,04:10,0.764,1.084,0.750,1.343,0.981,0.428,0.751,0.710,�k,2.0,��
2019/08/12,04:20,0.763,1.083,0.751,1.344,0.979,0.429,0.751,0.710,�k,1.7,��
2019/08/12,04:30,0.763,1.083,0.752,1.341,0.979,0.431,0.752,0.710,-,CALM,��
2019/08/12,04:40,0.764,1.080,0.753,1.344,0.980,0.430,0.754,0.709,�k,0.6,��
2019/08/12,04:50,0.763,1.082,0.751,1.344,0.981,0.430,0.751,0.710,�k,0.9,��
2019/08/12,05:00,0.765,1.081,0.754,1.343,0.981,0.430,0.752,0.711,�k,1.5,��
2019/08/12,05:10,0.764,1.081,0.753,1.343,0.980,0.431,0.753,0.709,�k,1.1,��
2019/08/12,05:20,0.764,1.083,0.754,1.342,0.981,0.430,0.752,0.708,�k,1.4,��
2019/08/12,05:30,0.765,1.082,0.753,1.345,0.979,0.430,0.752,0.709,�k�k��,2.0,��
2019/08/12,05:40,0.765,1.081,0.751,1.346,0.983,0.430,0.753,0.710,�k�k��,1.2,��
2019/08/12,05:50,0.765,1.084,0.753,1.343,0.980,0.432,0.753,0.709,�k�k��,1.5,��
2019/08/12,06:00,0.765,1.083,0.752,1.341,0.981,0.430,0.752,0.710,�k�k��,2.0,��
2019/08/12,06:10,0.764,1.082,0.753,1.344,0.980,0.430,0.751,0.711,�k�k��,1.7,��
2019/08/12,06:20,0.763,1.083,0.751,1.344,0.980,0.430,0.751,0.711,�k�k��,1.4,��
2019/08/12,06:30,0.764,1.082,0.750,1.342,0.980,0.431,0.751,0.710,�k��,0.6,��
2019/08/12,06:40,0.763,1.081,0.753,1.343,0.981,0.430,0.751,0.710,���k��,0.6,��
2019/08/12,06:50,0.763,1.082,0.752,1.345,0.981,0.429,0.751,0.708,��,0.8,��
2019/08/12,07:00,0.766,1.081,0.753,1.343,0.981,0.430,0.752,0.709,���k��,0.9,��
2019/08/12,07:10,0.762,1.080,0.751,1.342,0.980,0.429,0.752,0.709,�k,0.9,��
2019/08/12,07:20,0.764,1.083,0.750,1.344,0.979,0.428,0.752,0.708,-,CALM,��
2019/08/12,07:30,0.766,1.083,0.754,1.342,0.980,0.429,0.752,0.708,�쓌,1.5,��
2019/08/12,07:40,0.766,1.085,0.753,1.343,0.978,0.429,0.753,0.707,��쓌,1.7,��
2019/08/12,07:50,0.766,1.084,0.752,1.343,0.982,0.431,0.750,0.709,��쓌,2.2,��
2019/08/12,08:00,0.768,1.084,0.754,1.342,0.982,0.430,0.751,0.709,��쓌,1.2,��
2019/08/12,08:10,0.766,1.084,0.754,1.342,0.982,0.430,0.751,0.708,��쓌,2.2,��
2019/08/12,08:20,0.768,1.088,0.754,1.344,0.982,0.430,0.751,0.707,�쓌,2.0,��
2019/08/12,08:30,0.766,1.085,0.753,1.345,0.983,0.431,0.753,0.708,�쓌,2.5,��
2019/08/12,08:40,0.766,1.088,0.754,1.344,0.982,0.430,0.752,0.708,�쓌,2.8,��
2019/08/12,08:50,0.767,1.087,0.754,1.345,0.983,0.432,0.752,0.710,�쓌,3.2,��
2019/08/12,09:00,0.767,1.089,0.752,1.346,0.985,0.432,0.752,0.708,��쓌,4.0,��
2019/08/12,09:10,0.766,1.089,0.756,1.344,0.984,0.430,0.751,0.710,�쓌,2.9,��
2019/08/12,09:20,0.769,1.089,0.756,1.345,0.987,0.431,0.754,0.710,�쓌,3.2,��
2019/08/12,09:30,0.768,1.090,0.754,1.344,0.987,0.430,0.752,0.709,�쓌,2.2,��
2019/08/12,09:40,0.768,1.089,0.755,1.345,0.985,0.430,0.754,0.708,�쓌,2.3,��
2019/08/12,09:50,0.770,1.091,0.756,1.346,0.987,0.432,0.754,0.710,��쓌,3.2,��
2019/08/12,10:00,0.769,1.093,0.754,1.346,0.986,0.431,0.754,0.709,�쓌,3.1,��
2019/08/12,10:10,0.771,1.094,0.755,1.345,0.988,0.433,0.753,0.709,��쓌,4.0,��
2019/08/12,10:20,0.771,1.092,0.757,1.345,0.989,0.432,0.752,0.710,��쓌,3.1,��
2019/08/12,10:30,0.771,1.095,0.756,1.347,0.990,0.432,0.754,0.710,��쓌,4.1,��
2019/08/12,10:40,0.771,1.094,0.756,1.348,0.991,0.431,0.754,0.710,�쓌,4.0,��
2019/08/12,10:50,0.771,1.096,0.756,1.348,0.990,0.433,0.755,0.710,�쓌,4.2,��
2019/08/12,11:00,0.772,1.096,0.755,1.350,0.989,0.432,0.753,0.710,��쓌,5.4,��
2019/08/12,11:10,0.773,1.096,0.755,1.349,0.991,0.431,0.756,0.711,��쓌,5.0,��
2019/08/12,11:20,0.771,1.097,0.757,1.345,0.988,0.432,0.754,0.708,��쓌,5.5,��
2019/08/12,11:30,0.770,1.095,0.756,1.344,0.990,0.433,0.754,0.711,��쓌,6.1,��
2019/08/12,11:40,0.774,1.097,0.758,1.344,0.989,0.433,0.753,0.709,��쓌,6.2,��
2019/08/12,11:50,0.771,1.097,0.756,1.345,0.992,0.432,0.754,0.712,��쓌,5.4,��
2019/08/12,12:00,0.774,1.100,0.759,1.347,0.995,0.432,0.756,0.710,��쓌,7.7,��
2019/08/12,12:10,0.772,1.100,0.758,1.347,0.992,0.433,0.755,0.710,��쓌,6.8,��
2019/08/12,12:20,0.774,1.100,0.759,1.346,0.992,0.433,0.755,0.710,��쓌,7.0,��
2019/08/12,12:30,0.771,1.100,0.758,1.346,0.994,0.431,0.754,0.711,��쓌,8.3,��
2019/08/12,12:40,0.773,1.102,0.759,1.349,0.993,0.432,0.756,0.712,��쓌,8.2,��
2019/08/12,12:50,0.773,1.100,0.759,1.349,0.996,0.433,0.755,0.709,��쓌,7.7,��
2019/08/12,13:00,0.775,1.101,0.759,1.348,0.996,0.433,0.756,0.710,��쓌,6.7,��
2019/08/12,13:10,0.775,1.102,0.758,1.348,0.994,0.432,0.755,0.710,��쓌,9.4,��
2019/08/12,13:20,0.775,1.102,0.761,1.350,0.997,0.433,0.754,0.710,��쓌,9.7,��
2019/08/12,13:30,0.774,1.102,0.760,1.349,0.997,0.433,0.756,0.711,��,8.9,��
2019/08/12,13:40,0.774,1.099,0.760,1.348,0.996,0.434,0.756,0.712,��쓌,9.8,��
2019/08/12,13:50,0.774,1.100,0.760,1.349,0.995,0.434,0.756,0.711,��쓌,9.8,��
2019/08/12,14:00,0.773,1.100,0.761,1.351,0.997,0.434,0.755,0.710,��쓌,11.1,��
2019/08/12,14:10,0.774,1.104,0.759,1.350,0.995,0.433,0.756,0.711,��쓌,7.7,��
2019/08/12,14:20,0.774,1.104,0.757,1.351,0.998,0.434,0.755,0.711,��쓌,8.7,��
2019/08/12,14:30,0.773,1.100,0.759,1.350,0.997,0.434,0.756,0.712,��쓌,9.2,��
2019/08/12,14:40,0.775,1.105,0.759,1.350,0.998,0.434,0.756,0.712,��,9.3,��
2019/08/12,14:50,0.775,1.102,0.760,1.352,0.995,0.435,0.757,0.711,��,9.1,��
2019/08/12,15:00,0.776,1.104,0.759,1.352,0.996,0.434,0.755,0.711,��쓌,9.0,��
2019/08/12,15:10,0.774,1.101,0.759,1.352,0.999,0.435,0.759,0.711,��,9.6,��
2019/08/12,15:20,0.775,1.104,0.762,1.351,0.999,0.436,0.755,0.711,��,8.5,��
2019/08/12,15:30,0.775,1.102,0.760,1.349,1.001,0.435,0.755,0.712,��,10.8,��
2019/08/12,15:40,0.777,1.103,0.760,1.350,1.000,0.435,0.758,0.711,��,9.9,��
2019/08/12,15:50,0.777,1.103,0.760,1.354,1.000,0.434,0.756,0.711,��,11.6,��
2019/08/12,16:00,0.775,1.100,0.761,1.353,1.000,0.435,0.756,0.710,��,10.5,��
2019/08/12,16:10,0.777,1.101,0.760,1.350,1.001,0.434,0.755,0.711,��,10.5,��
2019/08/12,16:20,0.776,1.104,0.759,1.351,1.002,0.435,0.756,0.712,��쓌,11.6,��
2019/08/12,16:30,0.775,1.104,0.760,1.352,1.000,0.434,0.756,0.711,��,10.9,��
2019/08/12,16:40,0.773,1.103,0.760,1.355,0.997,0.435,0.756,0.711,��,9.5,��
2019/08/12,16:50,0.775,1.103,0.760,1.355,0.997,0.434,0.756,0.710,��,8.6,��
2019/08/12,17:00,0.776,1.104,0.761,1.353,1.000,0.434,0.757,0.709,��,8.8,��
2019/08/12,17:10,0.775,1.104,0.759,1.353,0.999,0.435,0.757,0.711,��,9.0,��
2019/08/12,17:20,0.776,1.104,0.760,1.352,1.000,0.434,0.758,0.710,��,8.3,��
2019/08/12,17:30,0.773,1.103,0.760,1.351,0.997,0.437,0.757,0.711,��,8.0,��
2019/08/12,17:40,0.778,1.103,0.760,1.355,0.998,0.436,0.755,0.711,��,6.6,��
2019/08/12,17:50,0.775,1.106,0.760,1.351,1.000,0.434,0.756,0.712,��,6.6,��
2019/08/12,18:00,0.780,1.103,0.760,1.355,1.002,0.435,0.756,0.712,��,5.2,��
2019/08/12,18:10,0.776,1.103,0.761,1.353,1.000,0.435,0.756,0.711,��,4.7,��
2019/08/12,18:20,0.773,1.105,0.763,1.355,0.999,0.436,0.756,0.709,��,5.2,��
2019/08/12,18:30,0.776,1.105,0.761,1.354,1.000,0.436,0.756,0.710,��,6.8,��
2019/08/12,18:40,0.776,1.105,0.762,1.353,1.000,0.436,0.756,0.712,��,7.2,��
2019/08/12,18:50,0.776,1.104,0.762,1.353,1.001,0.436,0.758,0.712,��,6.6,��
2019/08/12,19:00,0.777,1.104,0.761,1.351,1.000,0.435,0.757,0.713,��,7.5,��
2019/08/12,19:10,0.775,1.106,0.762,1.350,1.001,0.437,0.758,0.710,��,8.9,��
2019/08/12,19:20,0.777,1.103,0.761,1.352,0.999,0.437,0.755,0.711,��,8.3,��
2019/08/12,19:30,0.775,1.104,0.762,1.354,0.999,0.435,0.757,0.712,��,7.5,��
2019/08/12,19:40,0.776,1.107,0.761,1.353,1.000,0.435,0.756,0.713,��,6.5,��
2019/08/12,19:50,0.779,1.103,0.761,1.355,1.001,0.437,0.757,0.710,��,6.3,��
2019/08/12,20:00,0.778,1.104,0.762,1.354,1.000,0.436,0.757,0.712,��,6.4,��
2019/08/12,20:10,0.776,1.107,0.762,1.357,1.001,0.436,0.756,0.712,��,5.9,��
2019/08/12,20:20,0.777,1.107,0.764,1.354,1.000,0.435,0.757,0.713,��,6.2,��
2019/08/12,20:30,0.775,1.106,0.762,1.353,1.000,0.436,0.756,0.712,��,6.9,��
2019/08/12,20:40,0.777,1.105,0.762,1.357,0.999,0.438,0.756,0.713,��,6.5,��
2019/08/12,20:50,0.777,1.105,0.760,1.354,0.996,0.435,0.757,0.711,��,6.9,��
2019/08/12,21:00,0.775,1.104,0.762,1.355,1.000,0.435,0.756,0.714,��,7.5,��
2019/08/12,21:10,0.777,1.105,0.761,1.355,1.000,0.436,0.756,0.712,��,6.9,��
2019/08/12,21:20,0.778,1.105,0.761,1.354,1.000,0.436,0.757,0.712,��,7.3,��
2019/08/12,21:30,0.777,1.105,0.761,1.357,0.999,0.437,0.756,0.712,��,6.9,��
2019/08/12,21:40,0.778,1.104,0.761,1.354,1.000,0.436,0.758,0.714,��,6.0,��
2019/08/12,21:50,0.778,1.105,0.760,1.356,1.001,0.436,0.758,0.714,��,7.7,��
2019/08/12,22:00,0.775,1.104,0.761,1.355,1.001,0.437,0.757,0.714,��,8.1,��
2019/08/12,22:10,0.776,1.105,0.761,1.354,0.998,0.435,0.755,0.713,��,8.7,��
2019/08/12,22:20,0.777,1.104,0.762,1.354,1.001,0.435,0.759,0.713,��,8.7,��
2019/08/12,22:30,0.777,1.103,0.762,1.353,1.000,0.437,0.758,0.712,��쐼,7.5,��
2019/08/12,22:40,0.776,1.104,0.762,1.353,1.001,0.436,0.759,0.712,��,6.5,��
2019/08/12,22:50,0.777,1.104,0.762,1.357,1.000,0.436,0.756,0.712,��쐼,5.0,��
2019/08/12,23:00,0.774,1.106,0.762,1.355,1.001,0.436,0.758,0.713,��,6.2,��
2019/08/12,23:10,0.779,1.103,0.764,1.357,1.000,0.435,0.758,0.712,��,6.3,��
2019/08/12,23:20,0.776,1.104,0.763,1.353,0.999,0.436,0.757,0.711,��,6.2,��
2019/08/12,23:30,0.777,1.102,0.761,1.355,0.999,0.437,0.757,0.713,��,5.3,��
2019/08/12,23:40,0.775,1.105,0.762,1.356,0.999,0.437,0.757,0.713,��,4.9,��
2019/08/12,23:50,0.776,1.105,0.763,1.354,0.998,0.436,0.759,0.711,��,4.2,��
